Orbital Elements at Epoch 2459200.5 (2020-Dec-17.0) TDB
Reference: JPL 19 (heliocentric ecliptic J2000)
Element | Value | Uncertainty (1-sigma) | Units |
e | .2384160415062088 | 4.6112e-08 | |
a | 2.323537150546493 | 1.1196e-08 | au |
q | 1.769568620820582 | 1.0848e-07 | au |
i | 4.373355647661425 | 4.5832e-06 | deg |
node | 5.439030816368616 | 5.3794e-05 | deg |
peri | 305.1544333622013 | 5.4655e-05 | deg |
M | 291.0182263585579 | 1.0137e-05 | deg |
tp | 2459448.387549242449 (2021-Aug-21.88754924) | 3.7621e-05 | TDB |
period | 1293.668066453852 3.54 | 9.3502e-06 2.56e-08 | d yr |
n | .2782784930193236 | 2.0113e-09 | deg/d |
Q | 2.877505680272403 | 1.3865e-08 | au |
|
| | Orbit Determination Parameters
Additional Information
|